Weather History for PAKN - September, 2013

Change the Weather History Date:

Saturday, September 14, 2013

  Actual Average Record
Temperature  
Mean Temperature 53 °F 49 °F  
Max Temperature 65 °F 56 °F 67 °F (1939)
Min Temperature 40 °F 41 °F 22 °F (1987)
Degree Days  
Heating Degree Days 12 16  
Month to date heating degree days 158 201  
Since 1 July heating degree days 661 813  
Cooling Degree Days 0    
Month to date cooling degree days 0  
Year to date cooling degree days 4  
Growing Degree Days 2 (Base 50)    
Moisture  
Dew Point 46 °F    
Average Humidity 0    
Maximum Humidity 0    
Minimum Humidity 0    
Precipitation  
Precipitation 0.00 in 0.11 in 0.89 in (1961)
Month to date precipitation 1.02 1.53  
Year to date precipitation 15.11 13.13  
Snow  
Snow 0.00 in 0.00 in 0.00 in (2014)
Month to date snowfall 0.0 0.0  
Since 1 July snowfall 0.0 0.0  
Since 1 September snowfall 0.0 0.0  
Snow Depth 0.00 in    
Sea Level Pressure  
Sea Level Pressure 29.97 in    
Wind  
Wind Speed 9 mph (North)    
Max Wind Speed 20 mph    
Max Gust Speed 24 mph    
Visibility 10 miles    
Events      
T = Trace of Precipitation, MM = Missing Value Source: NWS Daily Summary

Daily Weather History Graph

Daily Weather History Graph

Search for Another Location

Airport or City:

Trip Planner

Search our weather history database for the weather conditions in past years. The results will help you decide how hot, cold, wet, or windy it might be!

Date:

Astronomy

Sep. 14, 2013 Rise Set
Actual Time 7:54 AM AKDT 8:47 PM AKDT
Civil Twilight 7:13 AM AKDT 9:28 PM AKDT
Nautical Twilight 6:24 AM AKDT 10:17 PM AKDT
Astronomical Twilight 5:28 AM AKDT 11:13 PM AKDT
Moon 6:27 PM AKDT (9/14) 1:41 AM AKDT (9/14)
Length of Visible Light 14h 14m
Length of Day
12h 53m
Waxing Gibbous, 74% of the Moon is Illuminated
Sep 14
Waxing Gibbous
Sep 19
Full
Sep 26
Last Quarter
Oct 4
New
Oct 11
First Quarter

Hourly Weather History & Observations

Time (AKDT) Temp. Windchill Dew Point Humidity Pressure Visibility Wind Dir Wind Speed Gust Speed Precip Events Conditions
12:54 AM 48.9 °F - 45.0 °F 86% 29.93 in 10.0 mi Variable 5.8 mph - N/A   Partly Cloudy
1:54 AM 45.0 °F 42.6 °F 43.0 °F 93% 29.93 in 10.0 mi NNE 4.6 mph - N/A   Partly Cloudy
2:54 AM 43.0 °F 38.8 °F 43.0 °F 100% 29.94 in 10.0 mi North 6.9 mph - N/A   Partly Cloudy
3:54 AM 43.0 °F - 42.1 °F 97% 29.95 in 10.0 mi Calm Calm - N/A   Clear
4:54 AM 44.1 °F 40.8 °F 44.1 °F 100% 29.95 in 10.0 mi NNW 5.8 mph - N/A   Scattered Clouds
5:54 AM 42.1 °F 40.2 °F 42.1 °F 100% 29.95 in 6.0 mi NNW 3.5 mph - N/A   Scattered Clouds
6:54 AM 42.1 °F 40.2 °F 42.1 °F 100% 29.95 in 10.0 mi North 3.5 mph - N/A   Partly Cloudy
7:54 AM 43.0 °F 38.2 °F 43.0 °F 100% 29.96 in 10.0 mi North 8.1 mph - N/A   Partly Cloudy
8:54 AM 45.0 °F 40.6 °F 44.1 °F 97% 29.97 in 10.0 mi North 8.1 mph - N/A   Partly Cloudy
9:54 AM 46.9 °F - 46.0 °F 97% 29.98 in 10.0 mi North 6.9 mph - N/A   Partly Cloudy
10:54 AM 51.1 °F - 48.9 °F 92% 29.99 in 10.0 mi North 5.8 mph - N/A   Mostly Cloudy
11:54 AM 57.0 °F - 50.0 °F 77% 29.99 in 10.0 mi North 11.5 mph - N/A   Mostly Cloudy
12:54 PM 61.0 °F - 48.9 °F 64% 29.98 in 10.0 mi North 12.7 mph - N/A   Partly Cloudy
1:54 PM 63.0 °F - 46.0 °F 54% 29.97 in 10.0 mi North 15.0 mph 21.9 mph N/A   Partly Cloudy
2:54 PM 63.0 °F - 46.9 °F 56% 29.96 in 10.0 mi North 13.8 mph 23.0 mph N/A   Partly Cloudy
3:54 PM 63.0 °F - 46.0 °F 54% 29.96 in 10.0 mi North 16.1 mph 23.0 mph N/A   Partly Cloudy
4:54 PM 64.0 °F - 46.0 °F 52% 29.96 in 10.0 mi NNW 15.0 mph 21.9 mph N/A   Partly Cloudy
5:54 PM 63.0 °F - 45.0 °F 52% 29.97 in 10.0 mi North 8.1 mph 20.7 mph N/A   Partly Cloudy
6:54 PM 63.0 °F - 46.0 °F 54% 29.96 in 10.0 mi NNW 11.5 mph - N/A   Partly Cloudy
7:54 PM 61.0 °F - 46.9 °F 60% 29.98 in 10.0 mi North 12.7 mph - N/A   Mostly Cloudy
8:54 PM 57.9 °F - 48.0 °F 70% 29.99 in 10.0 mi North 6.9 mph - N/A   Mostly Cloudy
9:54 PM 54.0 °F - 46.9 °F 77% 30.01 in 10.0 mi North 8.1 mph - N/A   Partly Cloudy
10:54 PM 53.1 °F - 46.9 °F 80% 30.02 in 10.0 mi NNW 6.9 mph - N/A   Mostly Cloudy
11:54 PM 51.1 °F - 46.9 °F 86% 30.02 in 10.0 mi North 9.2 mph - N/A   Partly Cloudy